QZS-4 (MICHIBIKI-4)

Last updated on Thu Nov 21 2024 00:02:43 GMT+0000 (Coordinated Universal Time)

1 42965U 17062A 24325.40499087 -.00000349 00000+0 00000+0 0 9994 2 42965 40.4389 350.8058 0752702 271.0174 82.3055 1.00258934 26069
UTC large
Height (km)
Speed (km/s)
/
Latitude / Longitude
Inclination (degrees)
Orbital Period (minutes)
Azimuth
Elevation
Range (km)
Doppler Factor

Next 0 passes for location: London (51.5072 / 0.1276)

Sorry there are no passes over London.